| time (UTC) | temp C | wind direction | speed KPH | gust KPH | rain 1hr cm | rain 24hr cm | rain mn cm | humidity % | barometer mb |
| 20260506061534 | 17 | 271 | 6.4 | 20.9 | 0.00 | 0.00 | 0.00 | 60 | 1014.1 |
| 20260506044524 | 17 | 287 | 6.4 | 17.7 | 0.00 | 0.00 | 0.00 | 59 | 1015.7 |
| 20260506043022 | 17 | 360 | 11.3 | 27.4 | 0.00 | 0.00 | 0.00 | 59 | 1015.8 |
| 20260506041521 | 17 | 339 | 8.0 | 22.5 | 0.00 | 0.00 | 0.00 | 59 | 1016.1 |
| 20260506040019 | 18 | 288 | 9.7 | 27.4 | 0.00 | 0.00 | 0.00 | 58 | 1016.4 |
| 20260506034518 | 18 | 355 | 9.7 | 20.9 | 0.00 | 0.00 | 0.00 | 58 | 1016.7 |
| 20260506033016 | 18 | 355 | 6.4 | 20.9 | 0.00 | 0.00 | 0.00 | 58 | 1016.7 |
| 20260506031513 | 17 | 344 | 8.0 | 24.1 | 0.00 | 0.00 | 0.00 | 59 | 1017.1 |
| 20260506030025 | 17 | 336 | 9.7 | 20.9 | 0.00 | 0.00 | 0.00 | 57 | 1017.4 |
| 20260506024522 | 18 | 317 | 8.0 | 17.7 | 0.00 | 0.00 | 0.00 | 56 | 1017.7 |
| 20260506023005 | 17 | 315 | 8.0 | 17.7 | 0.00 | 0.00 | 0.00 | 56 | 1018.0 |
| 20260506021502 | 17 | 293 | 4.8 | 14.5 | 0.00 | 0.00 | 0.00 | 58 | 1018.4 |
| 20260506020059 | 16 | 290 | 4.8 | 17.7 | 0.00 | 0.00 | 0.00 | 58 | 1018.7 |
| 20260506014556 | 16 | 288 | 4.8 | 14.5 | 0.00 | 0.00 | 0.00 | 59 | 1019.0 |
| 20260506013054 | 16 | 325 | 4.8 | 14.5 | 0.00 | 0.00 | 0.00 | 59 | 1019.3 |
| 20260506011553 | 16 | 310 | 6.4 | 16.1 | 0.00 | 0.00 | 0.00 | 59 | 1019.4 |
| 20260506010052 | 16 | 326 | 4.8 | 16.1 | 0.00 | 0.00 | 0.00 | 58 | 1019.5 |
| 20260506004550 | 16 | 327 | 4.8 | 19.3 | 0.00 | 0.00 | 0.00 | 58 | 1019.6 |
| 20260506003049 | 16 | 292 | 3.2 | 12.9 | 0.00 | 0.00 | 0.00 | 60 | 1019.8 |
| 20260506001549 | 15 | 360 | 8.0 | 16.1 | 0.00 | 0.00 | 0.00 | 61 | 1019.9 |
| 20260506000043 | 15 | 340 | 4.8 | 17.7 | 0.00 | 0.00 | 0.00 | 62 | 1020.0 |
| 20260505234548 | 15 | 307 | 1.6 | 12.9 | 0.00 | 0.00 | 0.00 | 63 | 1020.2 |
| 20260505233041 | 15 | 323 | 3.2 | 14.5 | 0.00 | 0.00 | 0.00 | 64 | 1020.3 |
| 20260505231550 | 15 | 322 | 3.2 | 11.3 | 0.00 | 0.00 | 0.00 | 64 | 1020.4 |
| 20260505230052 | 15 | 330 | 3.2 | 11.3 | 0.00 | 0.00 | 0.00 | 65 | 1020.4 |
| 20260505224537 | 14 | 332 | 1.6 | 11.3 | 0.00 | 0.00 | 0.00 | 65 | 1020.5 |
| 20260505223034 | 14 | 348 | 3.2 | 11.3 | 0.00 | 0.00 | 0.00 | 66 | 1020.5 |
| 20260505221535 | 14 | 278 | 3.2 | 6.4 | 0.00 | 0.00 | 0.00 | 67 | 1020.5 |
| 20260505220033 | 13 | 282 | 1.6 | 6.4 | 0.00 | 0.00 | 0.00 | 68 | 1020.6 |
| 20260505214533 | 13 | 309 | 3.2 | 9.7 | 0.00 | 0.00 | 0.00 | 68 | 1020.6 |
| 20260505213032 | 13 | 328 | 0.0 | 6.4 | 0.00 | 0.00 | 0.00 | 69 | 1020.4 |
| 20260505211531 | 13 | 331 | 1.6 | 8.0 | 0.00 | 0.00 | 0.00 | 69 | 1020.4 |
| 20260505210033 | 13 | 311 | 3.2 | 6.4 | 0.00 | 0.00 | 0.00 | 69 | 1020.5 |
| 20260505204530 | 13 | 306 | 1.6 | 8.0 | 0.00 | 0.00 | 0.00 | 69 | 1020.5 |
| 20260505203030 | 13 | 306 | 1.6 | 8.0 | 0.00 | 0.00 | 0.00 | 69 | 1020.5 |
| 20260505201528 | 13 | 324 | 1.6 | 6.4 | 0.00 | 0.00 | 0.00 | 69 | 1020.6 |
| 20260505200029 | 13 | 343 | 1.6 | 6.4 | 0.00 | 0.00 | 0.00 | 69 | 1020.6 |
| 20260505194528 | 13 | 307 | 1.6 | 6.4 | 0.00 | 0.00 | 0.00 | 70 | 1020.5 |
| 20260505193028 | 13 | 326 | 0.0 | 4.8 | 0.00 | 0.00 | 0.00 | 71 | 1020.7 |
| 20260505191525 | 13 | 303 | 0.0 | 4.8 | 0.00 | 0.00 | 0.00 | 72 | 1020.7 |
| 20260505190024 | 13 | 292 | 0.0 | 4.8 | 0.00 | 0.00 | 0.00 | 73 | 1020.8 |
| 20260505184524 | 13 | 325 | 0.0 | 4.8 | 0.00 | 0.00 | 0.00 | 73 | 1020.8 |
| 20260505183032 | 13 | 288 | 1.6 | 3.2 | 0.00 | 0.00 | 0.00 | 74 | 1020.8 |
| 20260505181522 | 13 | 306 | 1.6 | 3.2 | 0.00 | 0.00 | 0.00 | 75 | 1020.8 |
| 20260505180041 | 13 | 301 | 0.0 | 3.2 | 0.00 | 0.00 | 0.00 | 76 | 1020.8 |
| 20260505174522 | 13 | 327 | 0.0 | 3.2 | 0.00 | 0.00 | 0.00 | 76 | 1020.8 |
| 20260505173021 | 13 | 307 | 0.0 | 3.2 | 0.00 | 0.00 | 0.00 | 76 | 1020.9 |
| 20260505171520 | 13 | 286 | 0.0 | 3.2 | 0.00 | 0.00 | 0.00 | 76 | 1021.0 |
| 20260505170022 | 13 | 311 | 0.0 | 0.0 | 0.00 | 0.00 | 0.00 | 76 | 1021.1 |
| 20260505164518 | 13 | 311 | 0.0 | 3.2 | 0.00 | 0.00 | 0.00 | 76 | 1021.2 |
| 20260505163017 | 13 | 302 | 0.0 | 4.8 | 0.00 | 0.00 | 0.00 | 76 | 1021.3 |
| 20260505161616 | 13 | 314 | 1.6 | 4.8 | 0.00 | 0.00 | 0.00 | 76 | 1021.4 |
| 20260505153013 | 13 | 309 | 1.6 | 4.8 | 0.00 | 0.00 | 0.00 | 77 | 1021.9 |
| 20260505151511 | 13 | 325 | 0.0 | 6.4 | 0.00 | 0.00 | 0.00 | 78 | 1022.0 |
| 20260505124559 | 13 | 301 | 0.0 | 0.0 | 0.00 | 0.00 | 0.00 | 72 | 1022.4 |
| 20260505123101 | 14 | 301 | 0.0 | 0.0 | 0.00 | 0.00 | 0.00 | 72 | 1022.5 |
| 20260505121558 | 14 | 301 | 0.0 | 4.8 | 0.00 | 0.00 | 0.00 | 71 | 1022.5 |
| 20260505120059 | 15 | 292 | 1.6 | 4.8 | 0.00 | 0.00 | 0.00 | 71 | 1022.5 |
| 20260505114601 | 15 | 275 | 1.6 | 6.4 | 0.00 | 0.00 | 0.00 | 71 | 1022.6 |
| 20260505113057 | 14 | 305 | 0.0 | 6.4 | 0.00 | 0.00 | 0.00 | 71 | 1022.7 |
| 20260505111557 | 14 | 263 | 1.6 | 4.8 | 0.00 | 0.00 | 0.00 | 71 | 1022.6 |
| 20260505101608 | 14 | 325 | 0.0 | 0.0 | 0.00 | 0.00 | 0.00 | 73 | 1022.4 |
| 20260505100104 | 15 | 263 | 0.0 | 0.0 | 0.00 | 0.00 | 0.00 | 73 | 1022.5 |
| 20260505094553 | 15 | 263 | 0.0 | 0.0 | 0.00 | 0.00 | 0.00 | 73 | 1022.4 |
| 20260505093102 | 15 | 263 | 0.0 | 0.0 | 0.00 | 0.00 | 0.00 | 73 | 1022.5 |
| 20260505091554 | 15 | 263 | 0.0 | 0.0 | 0.00 | 0.00 | 0.00 | 73 | 1022.4 |
| 20260505090052 | 15 | 262 | 0.0 | 0.0 | 0.00 | 0.00 | 0.00 | 73 | 1022.2 |
| 20260505084553 | 15 | 262 | 0.0 | 4.8 | 0.00 | 0.00 | 0.00 | 73 | 1022.3 |
| 20260505083050 | 15 | 263 | 0.0 | 0.0 | 0.00 | 0.00 | 0.00 | 73 | 1022.1 |
| 20260505081601 | 15 | 263 | 0.0 | 4.8 | 0.00 | 0.00 | 0.00 | 72 | 1021.9 |
| 20260505080058 | 15 | 265 | 0.0 | 3.2 | 0.00 | 0.00 | 0.00 | 71 | 1021.7 |
| 20260505074546 | 15 | 252 | 1.6 | 6.4 | 0.00 | 0.00 | 0.00 | 71 | 1021.5 |
| 20260505073048 | 15 | 268 | 1.6 | 6.4 | 0.00 | 0.00 | 0.00 | 69 | 1021.4 |
| 20260505071551 | 15 | 273 | 1.6 | 6.4 | 0.00 | 0.00 | 0.00 | 67 | 1021.3 |